| time (UTC) | temp F | wind direction | speed MPH | gust MPH | rain 1hr in | rain 24hr in | rain mn in | humidity % | barometer mb |
| 20260504050017 | 71 | 292 | 10.0 | 0.0 | 0.00 | 3.52 | 0.00 | 49 | 1009.6 |
| 20260504043017 | 71 | 337 | 4.0 | 0.0 | 0.00 | 3.52 | 0.00 | 49 | 1009.5 |
| 20260504040016 | 71 | 315 | 7.0 | 0.0 | 0.00 | 3.52 | 0.00 | 49 | 1009.3 |
| 20260504033015 | 72 | 315 | 5.0 | 0.0 | 0.00 | 3.52 | 0.00 | 49 | 1008.9 |
| 20260504030014 | 74 | 225 | 6.0 | 0.0 | 0.00 | 3.52 | 0.00 | 46 | 1008.9 |
| 20260504023013 | 76 | 315 | 9.0 | 0.0 | 0.00 | 3.52 | 0.00 | 46 | 1009.2 |
| 20260504020012 | 74 | 270 | 5.0 | 0.0 | 0.00 | 3.52 | 0.00 | 50 | 1009.2 |
| 20260504013011 | 73 | 292 | 8.0 | 0.0 | 0.00 | 3.52 | 0.00 | 54 | 1009.2 |
| 20260504010011 | 72 | 247 | 5.0 | 0.0 | 0.00 | 3.52 | 0.00 | 56 | 1009.2 |
| 20260504003010 | 69 | 270 | 4.0 | 0.0 | 0.00 | 3.52 | 0.00 | 63 | 1009.1 |
| 20260504000009 | 66 | 270 | 0.0 | 0.0 | 0.00 | 3.52 | 0.00 | 68 | 1008.6 |
| 20260503233008 | 65 | 292 | 4.0 | 0.0 | 0.00 | 3.52 | 0.00 | 70 | 1008.4 |
| 20260503230007 | 64 | 292 | 1.0 | 0.0 | 0.00 | 3.52 | 0.00 | 72 | 1008.1 |
| 20260503223005 | 63 | 225 | 3.0 | 0.0 | 0.00 | 3.52 | 0.00 | 75 | 1007.5 |
| 20260503220004 | 63 | 202 | 2.0 | 0.0 | 0.00 | 3.52 | 0.00 | 77 | 1007.2 |
| 20260503213004 | 62 | 157 | 2.0 | 0.0 | 0.00 | 3.52 | 0.00 | 77 | 1006.3 |
| 20260503210002 | 62 | 292 | 6.0 | 0.0 | 0.00 | 3.52 | 0.00 | 77 | 1005.9 |
| 20260503203024 | 62 | 180 | 2.0 | 0.0 | 0.00 | 3.52 | 0.00 | 81 | 1005.6 |
| 20260503200001 | 62 | 247 | 0.0 | 0.0 | 0.00 | 3.52 | 0.00 | 83 | 1005.2 |
| 20260503193000 | 62 | 292 | 2.0 | 0.0 | 0.00 | 3.52 | 0.00 | 85 | 1004.8 |
| 20260503185959 | 62 | 0 | 0.0 | 0.0 | 0.00 | 3.52 | 0.00 | 86 | 1004.4 |
| 20260503180019 | 63 | 157 | 2.0 | 0.0 | 0.12 | 3.52 | 0.00 | 87 | 1003.4 |
| 20260503173019 | 64 | 247 | 6.0 | 0.0 | 0.14 | 3.46 | 0.00 | 87 | 1003.1 |